Starlink 2657

operational
NORAD ID: 48655 Int'l Des: 2021-044 Owner: SPXS Country: US Constellation: starlink
LEOCIRCULARSTARLINK_TYPE

Über Starlink 2657

Beschreibung wird geladen...

Live-Position

3D-Globus wird geladen...

Nächste Überflüge

Höhenverlauf

Altitude vs Time

uPlot chart will show altitude changes over time

Zweizeiliger Elementsatz

1 48655U 21044T 25351.13668009 .00001041 00000-0 88758-4 0 9994
2 48655 53.0549 132.2118 0001624 86.3174 273.8000 15.06403220251265
Epoch: 17. Dez. 2025 • Age: 16 hours

Aktueller Status

Höhe 552.5 km
Geschwindigkeit 7.59 km/s
Subsatellitenpunkt 52.76°N, 171.39°W
Startdatum 26. Mai 2021
Alter 4.5 years
Typ internet

Technische Details

Klassifizierung Payload
Masse 260.00 kg
Trockenmasse 248.00 kg
Gesamtmasse 260.00 kg
Länge 0.20 m
Durchmesser 2.80 m
Spannweite 9.00 m
Form Box + pan
Hersteller SPXS
Bus-Typ Starlink
Phasenstatus In Orbit
Besitzer/Staat SPXS/US

Große Konstellationen

Loading constellations...